Tracking 19634 objects as of 23-May-2019
HD Live streaming from Space Station
objects crossing your sky now

COSMOS 2151

Track COSMOS 2151 now!
10-day predictions
COSMOS 2151 is classified as:


NORAD ID: 21422
Int'l Code: 1991-042A
Perigee: 587.7 km
Apogee: 609.7 km
Inclination: 82.5 °
Period: 96.5 minutes
Semi major axis: 6969 km
RCS: 8.6021 m2 (large)
Launch date: June 13, 1991
Source: Commonwealth of Independent States (former USSR) (CIS)
Launch site: PLESETSK MISSILE AND SPACE COMPLEX (PKMTR)
aabbcc
Your satellite tracking list
Your tracking list is empty




NASA's NSSDC Master Catalog

Two Line Element Set (TLE):
1 21422U 91042A   19143.01869432  .00000128  00000-0  10062-4 0  9992
2 21422  82.4988 295.5890 0015776  99.8702 260.4300 14.92046347513599
Source of the keplerian elements: AFSPC